{"data":{"norad_id":68370,"intl_designator":"2026-061L","name":"RASSVET-3 11","alt_names":[],"object_type":"PAYLOAD","status":"ACTIVE","operator":null,"country":"CIS","launch_date":"2026-03-23","launch_site_code":"PLMSC","launch_vehicle":null,"mission":null,"orbit_class":"UNKNOWN","rcs_meters":null,"size_class":null,"mass_kg":null,"dimensions":null,"purposes":[],"wikipedia_slug":null,"has_3d_model":false,"image_url":null,"decayed_at":null,"tle_current":{"epoch":"2026-09-17T23:31:24.991968Z","epoch_age_seconds":290002,"freshness":"STALE","line1":"1 68370U 26061L   26260.98015037  .00028074  00000+0  28696-3 0  9992","line2":"2 68370  82.2868 270.0425 0004801 165.4135 194.7263 15.64860983 28112","mean_motion":15.64860983,"eccentricity":0.0004801,"inclination_deg":82.2868,"raan_deg":270.0425,"arg_perigee_deg":165.4135,"mean_anomaly_deg":194.7263,"bstar":0.00028696,"rev_number":2811,"period_min":92.020953659371,"perigee_km":370.39707242817,"apogee_km":376.88012735919,"semimajor_km":6751.7755998937,"source":"CELESTRAK","updated_at":"2026-09-20T09:00:24.164472Z"}}}